BREEZE-M R/B, 40278

Orbit data source: Space-Track

BREEZE-M R/B, 40278 is space debris in GEO originally from a launch on Tue, 21 Oct 2014 UTC launched from the Tyuratam Missile And Space Complex (TTMTR). Debris objects in space refer to the collection of defunct objects orbiting the Earth. Examples of debris include non-operational satellites, rocket bodies, and fragments generated from explosions, collisions, or faulty payload assembly.

Loading next visibility...
Identifier
40278, 2014-064B
Orbit
GEO
Country
Flag of CISCIS
Related business
Manufacturer
Khrunichev
Mission
Spacecraft
Bus & Motor
BRIZ, Unknown motor
Mass
~1,600 kg wet, 1,600 kg dry
Launch date (UTC)
2014-10-21 (11 years ago)
Launch vehicle
Unknown
Launch site
Tyuratam Missile And Space Complex (TTMTR)
Object type
Payload
Rocket body
Debris
Shape & HBR
Cyl, 2.0 m
Radar Cross Section
15.135 m², Large (>1 m²)

Expand to show TLE details & history
Last TLE update: 18 hours ago

TLE from 18 hours ago
0 BREEZE-M R/B
1 40278U 14064B   25343.12780767 -.00000155  00000-0  00000+0 0  9992
2 40278   8.8126  64.5789 0590783 212.9331 143.1139  0.95222231 38717
Epoch: 2025-12-09T03:04Z
TLE epoch observation values (Epoch: 2025-12-09T03:04:02.582Z)
Latitude
Longitude
-59.66575°
Altitude
39,389.915 km
Speed
2.878 km/s
True Right ascension
04h 17m 50s
True Declination
0° 00' 00"
Sunlit
Object was in daylight at epoch
Visualization orbit readout
Latitude
Unknown
Longitude
Unknown
Altitude
Unknown
Speed
Unknown
Apparent Right ascension
Unknown
Apparent Declination
Unknown
Sunlit
N/A
Visualization observer readout
Local Sidereal Time
18:55:27
Azimuth
Unknown
Elevation
Unknown
Doppler factor
Unknown
Orbital elements
Apogee altitude
39,843.751 km
Perigee altitude
34,686.983 km
Semi-major axis
43,643.504 km
Eccentricity
0.05908
Inclination
8.8126°
RAAN
64.5789°
Arg. of periapsis
212.9331°
True anomaly
146.94743°
Mean anomaly
143.1139°
Eccentric anomaly
145.05286°
Mean motion
0.23805 °/min
Orbital period
1,512.3 mins
BSTAR
0
Loading maneuver chart data...
Computing Atmospheric mass density...
Loading historical data...
Loading historical data...
Loading historical data...
Loading historical data...
Loading historical data...
Loading historical data...
Loading historical data...
Other satellites on launch #64 in the year 2014 (2014-10-21 UTC)

Documentation

Showing up to 5 results
|